Weather History for Rocky Mount, NC

Change the Weather History Date:

Sunday, June 23, 2013

  Actual Average Record
Temperature  
Mean Temperature 78 °F -  
Max Temperature 84 °F 86 °F 100 °F (1956)
Min Temperature 71 °F 64 °F 50 °F (1992)
Cooling Degree Days 12    
Growing Degree Days 28 (Base 50)    
Moisture  
Dew Point 71 °F    
Average Humidity 87    
Maximum Humidity 96    
Minimum Humidity 67    
Precipitation  
Precipitation 0.48 in - - ()
Sea Level Pressure  
Sea Level Pressure 30.18 in    
Wind  
Wind Speed 3 mph (SSW)    
Max Wind Speed 7 mph    
Max Gust Speed 17 mph    
Visibility 9 miles    
Events Rain , Thunderstorm    
Averages and records for this station are not official NWS values.
T = Trace of Precipitation, MM = Missing Value Source: NWS Daily Summary

Daily Weather History Graph

Daily Weather History Graph

Search for Another Location

Airport:

Trip Planner

Search our weather history database for the weather conditions in past years. The results will help you decide how hot, cold, wet, or windy it might be!

Date:

Astronomy

Jun. 23, 2013 Rise Set
Actual Time 5:56 AM EDT 8:31 PM EDT
Civil Twilight 5:25 AM EDT 9:01 PM EDT
Nautical Twilight 4:48 AM EDT 9:39 PM EDT
Astronomical Twilight 4:06 AM EDT 10:20 PM EDT
Moon 8:44 PM EDT (6/23) 6:09 AM EDT (6/23)
Length of Visible Light 15h 35m
Length of Day
14h 35m
Full, 100% of the Moon is Illuminated
Jun 23
Full
Jun 30
Last Quarter
Jul 8
New
Jul 15
First Quarter
Jul 22
Full

Hourly Weather History & Observations

Time (EDT) Temp. Heat Index Dew Point Humidity Pressure Visibility Wind Dir Wind Speed Gust Speed Precip Events Conditions
12:53 AM 72.0 °F - 70.0 °F 93% 30.16 in 10.0 mi SSW 4.6 mph - 0.03 in   Overcast
1:43 AM 71.6 °F - 69.8 °F 94% 30.17 in 10.0 mi South 3.5 mph - 0.00 in Rain Light Rain
1:53 AM 72.0 °F - 70.0 °F 93% 30.17 in 10.0 mi Calm Calm - 0.00 in   Overcast
2:53 AM 72.0 °F - 70.0 °F 93% 30.16 in 7.0 mi South 3.5 mph - 0.01 in Rain Light Rain
3:10 AM 71.6 °F - 69.8 °F 94% 30.16 in 8.0 mi South 4.6 mph - 0.01 in Rain Light Rain
3:24 AM 71.6 °F - 69.8 °F 94% 30.16 in 2.5 mi South 4.6 mph - 0.14 in Rain Rain
3:48 AM 71.6 °F - 69.8 °F 94% 30.16 in 6.0 mi South 3.5 mph - 0.28 in Rain Light Rain
3:53 AM 71.1 °F - 70.0 °F 96% 30.16 in 10.0 mi SSW 3.5 mph - 0.28 in Rain Light Rain
4:28 AM 71.6 °F - 69.8 °F 94% 30.16 in 2.0 mi Calm Calm - 0.12 in Rain Heavy Rain
4:42 AM 71.6 °F - 69.8 °F 94% 30.16 in 10.0 mi Calm Calm - 0.14 in Rain Light Rain
4:50 AM 71.6 °F - 69.8 °F 94% 30.16 in 10.0 mi Calm Calm - 0.14 in Rain Light Rain
4:53 AM 71.1 °F - 70.0 °F 96% 30.16 in 10.0 mi Calm Calm - 0.14 in Rain Light Rain
5:17 AM 71.6 °F - 69.8 °F 94% 30.17 in 10.0 mi Calm Calm - 0.00 in   Overcast
5:39 AM 71.6 °F - 69.8 °F 94% 30.18 in 10.0 mi Calm Calm - 0.00 in   Overcast
5:53 AM 72.0 °F - 70.0 °F 93% 30.18 in 10.0 mi Calm Calm - 0.00 in   Overcast
6:53 AM 73.0 °F - 71.1 °F 93% 30.18 in 9.0 mi Calm Calm - 0.00 in   Overcast
7:10 AM 73.4 °F - 71.6 °F 94% 30.19 in 9.0 mi Calm Calm - N/A   Overcast
7:35 AM 73.4 °F - 71.6 °F 94% 30.19 in 9.0 mi Calm Calm - N/A   Overcast
7:53 AM 75.0 °F - 72.0 °F 90% 30.19 in 10.0 mi South 3.5 mph - N/A   Overcast
8:04 AM 73.4 °F - 71.6 °F 94% 30.20 in 10.0 mi SSW 4.6 mph - N/A   Overcast
8:15 AM 75.2 °F - 71.6 °F 89% 30.21 in 9.0 mi SW 3.5 mph - N/A   Overcast
8:21 AM 75.2 °F - 71.6 °F 89% 30.21 in 10.0 mi SW 4.6 mph - N/A   Overcast
8:33 AM 75.2 °F - 71.6 °F 89% 30.21 in 10.0 mi SW 4.6 mph - N/A   Overcast
8:43 AM 75.2 °F - 73.4 °F 94% 30.21 in 10.0 mi SSW 4.6 mph - N/A   Overcast
8:53 AM 75.9 °F - 72.0 °F 87% 30.21 in 10.0 mi SSW 5.8 mph - N/A   Mostly Cloudy
9:53 AM 78.1 °F - 72.0 °F 81% 30.22 in 10.0 mi SW 6.9 mph - N/A   Overcast
10:53 AM 80.1 °F 83.8 °F 72.0 °F 76% 30.22 in 10.0 mi SW 3.5 mph - N/A   Mostly Cloudy
11:07 AM 78.8 °F - 71.6 °F 78% 30.22 in 10.0 mi NW 5.8 mph - N/A   Mostly Cloudy
11:20 AM 80.6 °F 85.4 °F 73.4 °F 79% 30.22 in 10.0 mi NW 5.8 mph - N/A   Mostly Cloudy
11:53 AM 81.0 °F 85.8 °F 73.0 °F 77% 30.21 in 10.0 mi Calm Calm - N/A   Mostly Cloudy
12:39 PM 80.6 °F 84.6 °F 71.6 °F 74% 30.22 in 10.0 mi Calm Calm - 0.00 in Rain , Thunderstorm Light Rain
12:53 PM 78.1 °F - 73.0 °F 84% 30.21 in 8.0 mi South 3.5 mph - 0.00 in Rain Light Rain
1:03 PM 77.0 °F - 73.4 °F 89% 30.21 in 7.0 mi SSW 4.6 mph - 0.01 in Rain , Thunderstorm Light Rain
1:18 PM 77.0 °F - 73.4 °F 89% 30.21 in 10.0 mi Calm Calm - 0.01 in Rain Light Rain
1:53 PM 79.0 °F - 73.9 °F 84% 30.20 in 10.0 mi Calm Calm - 0.02 in   Scattered Clouds
2:53 PM 82.0 °F 86.7 °F 72.0 °F 71% 30.18 in 10.0 mi Calm Calm - N/A   Partly Cloudy
3:53 PM 84.0 °F 89.6 °F 72.0 °F 67% 30.16 in 10.0 mi SSE 5.8 mph - N/A   Clear
4:53 PM 84.0 °F 90.2 °F 73.0 °F 69% 30.14 in 10.0 mi South 4.6 mph - N/A   Clear
5:53 PM 82.9 °F 88.8 °F 73.0 °F 72% 30.15 in 10.0 mi SSE 4.6 mph - N/A   Scattered Clouds
6:53 PM 81.0 °F 84.9 °F 71.1 °F 72% 30.16 in 10.0 mi Variable 4.6 mph 17.3 mph N/A   Clear
7:53 PM 77.0 °F - 71.1 °F 82% 30.16 in 10.0 mi South 5.8 mph - N/A   Clear
8:53 PM 75.9 °F - 71.1 °F 85% 30.17 in 10.0 mi South 5.8 mph - N/A   Clear
9:53 PM 75.9 °F - 71.1 °F 85% 30.17 in 10.0 mi South 6.9 mph - N/A   Clear
10:53 PM 75.0 °F - 71.1 °F 87% 30.18 in 10.0 mi South 4.6 mph - N/A   Clear
11:53 PM 73.9 °F - 71.1 °F 91% 30.18 in 10.0 mi SSE 4.6 mph - N/A   Partly Cloudy